Visibility
15.0 15.0 15.0 15.0 15.0 15.0 15.0 15.0 15.0 15.0 15.0 15.0 15.0 15.0 15.0 15.0 15.0 15.0 15.0 14.2 8.4 5.3
15.0 15.0 15.0 15.0 15.0 15.0 15.0 15.0 9.4 12.8 15.0 15.0 15.0 15.0 15.0 15.0 15.0 15.0 7.0 14.9 14.7 5.3
15.0 15.0 15.0 15.0 15.0 15.0 15.0 15.0 15.0 15.0 15.0 15.0 15.0 15.0 15.0 15.0 12.3 9.5 4.3 14.6 9.0 15.0
15.0 15.0 15.0 15.0 15.0 15.0 15.0 15.0 15.0 15.0 15.0 15.0 15.0 15.0 15.0 4.7 12.2 15.0 15.0 15.0 15.0 15.0
15.0 15.0 15.0 15.0 15.0 15.0 15.0 15.0 15.0 15.0 15.0 15.0 15.0 14.6 15.0 7.6 6.2 8.0 7.5 3.9 14.9 10.0
15.0 15.0 15.0 15.0 15.0 15.0 15.0 15.0 15.0 15.0 15.0 15.0 15.0 11.4 3.5 6.3 15.0 15.0 15.0 3.4 15.0 15.0
15.0 15.0 15.0 15.0 15.0 15.0 15.0 15.0 15.0 15.0 15.0 15.0 9.0 11.1 12.5 15.0 4.7 12.7 3.2 3.8 13.0 9.8
15.0 15.0 15.0 15.0 15.0 15.0 15.0 15.0 15.0 15.0 15.0 7.5 11.9 15.0 8.7 3.5 6.2 15.0 6.3 11.4 14.4 10.0
15.0 15.0 15.0 15.0 15.0 15.0 15.0 15.0 15.0 15.0 15.0 4.4 15.0 0.0 0.0 0.0 15.0 3.9 15.0 15.0 15.0 15.0
15.0 15.0 15.0 15.0 15.0 15.0 15.0 15.0 15.0 10.5 15.0 15.0 15.0 0.1 0.0 0.0 15.0 15.0 15.0 15.0 14.3 15.0
15.0 15.0 15.0 15.0 15.0 15.0 15.0 8.5 10.0 12.0 15.0 13.0 14.0 0.0 0.0 0.0 15.0 15.0 15.0 15.0 15.0 15.0
15.0 15.0 15.0 15.0 15.0 15.0 15.0 11.3 15.0 15.0 10.9 15.0 14.8 0.0 0.0 0.6 15.0 14.6 14.0 15.0 15.0 15.0
15.0 15.0 15.0 15.0 15.0 15.0 15.0 15.0 15.0 15.0 15.0 3.1 15.0 0.0 0.0 11.9 15.0 15.0 15.0 9.2 15.0 0.5
15.0 15.0 15.0 12.8 14.8 15.0 15.0 15.0 10.3 6.9 11.8 15.0 9.7 6.6 0.0 0.1 15.0 15.0 15.0 15.0 15.0 12.6